Find Starlink 4431

NORAD ID: 53486 Int'l Des: 2022-099 Owner: SPXS Country: US Constellation: starlink operational
LEOCIRCULARRETROGRADESSO

当前视图

正在加载3D地球...

关于 Starlink 4431

正在加载描述...

即将过境

Passes for default location (London). Set your location on the main map for personalized predictions.

高度历史

Loading altitude history...

两行轨道根数

1 53486U 22099X 26149.58337963 .00643447 00000-0 12581-1 0 9990
2 53486 97.6053 271.9484 0001410 74.7314 271.4785 15.45351163 5840
Epoch: May 29, 2026 • Age: 14 hours

当前状态

高度 430.1 km
速度 7.66 km/s
星下点 16.72°N, 39.16°W
发射日期 Aug 12, 2022
运行时间 3.7 years
类型 internet

技术详情

分类 Payload
质量 300.00 kg
干质量 275.00 kg
总质量 300.00 kg
长度 0.20 m
直径 2.80 m
跨度 9.00 m
形状 Box + pan
制造商 SPXS
平台类型 Starlink
阶段状态 In Orbit
所有者/国家 SPXS/US

Most Searched